Location: Heidgraben
(53.7081°N, 9.6576°E)
Time: 07:50:16
(UTC+00:00)

Cosmos 1633 - Pass Details

Date: 05 July 2020
Orbit: 463 x 482 km, 82.5° (Epoch: 14 August)

Event Time Altitude Azimuth Distance (km) Brightness Sun altitude
Exits shadow 23:01:08 19° 142° (SE) 1,189 4.0 -13.4°
Maximum altitude 23:03:02 32° 92° (E) 854 3.7 -13.5°
Drops below altitude 10° 23:06:18 10° 28° (NNE) 1,666 6.2 -13.5°
Sets 23:08:32 0° 19° (NNE) 2,548 7.6 -13.5°
